DELTA 1 DEB, 18472

Orbit data source: Space-Track

DELTA 1 DEB, 18472 is space debris in SSO originally from a launch on Tue, 06 Nov 1973 UTC launched from the Air Force Western Test Range (AFWTR). Debris objects in space refer to the collection of defunct objects orbiting the Earth. Examples of debris include non-operational satellites, rocket bodies, and fragments generated from explosions, collisions, or faulty payload assembly.

Loading next visibility...
Identifier
18472, 1973-086GV
Orbit
SSO
Country
Flag of USUS
Related business
Manufacturer
Unknown
Mission
Spacecraft
Bus & Motor
Unknown
Mass
Unknown
Launch date (UTC)
1973-11-06 (52 years ago)
Launch vehicle
Unknown
Launch site
Air Force Western Test Range (AFWTR)
Object type
Payload
Rocket body
Debris
Shape & HBR
Unknown shape, 0.1 m
Radar Cross Section
Small (<0.1 m²)

Expand to show TLE details & history
Last TLE update: 1 day ago

TLE from 1 day ago
0 DELTA 1 DEB
1 18472U 73086GV  26033.39466897 -.00000020  00000-0  10984-3 0  9990
2 18472 101.0567  85.8933 0014351 316.6648  64.0837 12.77552114907164
Epoch: 2026-02-02T09:28Z
TLE epoch observation values (Epoch: 2026-02-02T09:28:19.399Z)
Latitude
20.49815°
Longitude
167.05344°
Altitude
1,348.782 km
Speed
7.188 km/s
True Right ascension
05h 26m 53s
True Declination
20° 23' 39"
Sunlit
Object was in full shadow at epoch
Visualization orbit readout
Latitude
Unknown
Longitude
Unknown
Altitude
Unknown
Speed
Unknown
Apparent Right ascension
Unknown
Apparent Declination
Unknown
Sunlit
N/A
Visualization observer readout
Local Sidereal Time
22:52:27
Azimuth
Unknown
Elevation
Unknown
Doppler factor
Unknown
Orbital elements
Apogee altitude
1,359.888 km
Perigee altitude
1,337.71 km
Semi-major axis
7,726.936 km
Eccentricity
0.00144
Inclination
101.0567°
RAAN
85.8933°
Arg. of periapsis
316.6648°
True anomaly
64.23173°
Mean anomaly
64.0837°
Eccentric anomaly
64.1577°
Mean motion
3.19545 °/min
Orbital period
112.66 mins
BSTAR
0.00010984
Loading maneuver chart data...
Computing Atmospheric mass density...
Loading historical data...
Loading historical data...
Loading historical data...
Loading historical data...
Loading historical data...
Loading historical data...
Loading historical data...

Documentation

Showing up to 5 results
|